Regional Weather Roundup
Issued by NWS Sterling, VA

Home | Current Version | Previous Version | Graphics & Text | Print | Product List | Glossary On
Versions: 1 2 3 4 5 6 7 8 9 10 11 12 13 14 15 16 17 18 19 20 21 22 23 24 25 26 27
000
ASUS41 KLWX 180511
RWRLWX

REGIONAL WEATHER ROUNDUP
NATIONAL WEATHER SERVICE BALTIMORE MD/WASHINGTON DC
1200 AM EST THU JAN 18 2018

Note: "FAIR" indicates few or no clouds below 12,000 feet
with no significant weather and/or obstructions to visibility.
 TC=TEMPERATURE CELSIUS

 * =Non NWS site. Station does not report precipitation (e.g. rain,
    snow, etc.), thunder, or fog.

DCZ001-MDZ009-015-VAZ040>042-051-053>054-180600-
WASHINGTON METRO

CITY           SKY/WX    TMP DP  RH WIND       PRES   REMARKS
WASHINGTON NAT FAIR      20   7  57 NW13      30.31S WCI   7
DULLES         FAIR      17   6  62 NW12      30.29F WCI   4
ANDREWS AFB    MOCLDY    19   6  58 NW13      30.27S WCI   6
FT BELVOIR     FAIR      20   4  51 NW10G17   30.30F WCI   8
COLLEGE PARK*  MOCLDY    19   6  57 NW7       30.29F WCI   9
LEESBURG*      FAIR      19  10  68 NW10      30.29F WCI   8
MANASSAS*      FAIR      16   7  67 N8        30.31F WCI   5
GAITHERSBURG*  FAIR      14   6  70 NW9       30.26F WCI   2

$$

MDZ006>007-011-014-180600-
BALTIMORE METRO

CITY           SKY/WX    TMP DP  RH WIND       PRES   REMARKS
BWI AIRPORT    MOCLDY    18   7  62 NW9       30.27F WCI   7
MD SCIENCE CTR   N/A     21   7  54 MISG      30.28F
MARTIN STATE   FAIR      21  12  68 W8        30.29F WCI  12
ANNAPOLIS      FAIR      24  13  62 NW15G22   30.27F WCI  11
FORT MEADE*    FAIR      19   9  63 NW5       30.30F WCI  13

$$

MDZ012-015-019>023-180600-
MARYLAND EASTERN SHORE

CITY           SKY/WX    TMP DP  RH WIND       PRES   REMARKS
OCEAN CITY     NOT AVBL
SALISBURY      CLOUDY    24  10  55 N14G24    30.21F WCI  12
BAY BRIDGE AP* FAIR      21  10  63 NW13G18   30.27F WCI   9
CAMBRIDGE*     CLOUDY    23  10  58 N13G24    30.24F WCI  11
EASTON*        MOCLDY    24  10  56 N10G18    30.29F WCI  13

$$

MDZ017>025-180600-
SOUTHERN MARYLAND

CITY           SKY/WX    TMP DP  RH WIND       PRES   REMARKS
PATUXENT RIVER NOT AVBL
ST INIGOES     FAIR      24   9  52 VRB6G18   30.24F WCI  17
LEONARDTOWN*   MOCLDY    23  10  58 NW13G20   30.26F WCI  11

$$

MDZ003>005-180600-
NORTH CENTRAL MARYLAND

CITY           SKY/WX    TMP DP  RH WIND       PRES   REMARKS
FREDERICK*     FAIR      19   5  53 W7        30.31F WCI  10
HAGERSTOWN APT FAIR      13   4  67 SW7       30.27F WCI   3
WESTMINSTER*   FAIR      16   9  73 W6        30.22F WCI   7

$$

MDZ501>502-180600-
WESTERN MARYLAND

CITY           SKY/WX    TMP DP  RH WIND       PRES   REMARKS
OAKLAND*       CLOUDY     3   0  85 W12       30.13F WCI -13
CUMBERLAND*    FAIR      14   5  67 NW8         N/A  WCI   3

$$

VAZ025>031-180600-
SHENANDOAH VALLEY

CITY           SKY/WX    TMP DP  RH WIND       PRES   REMARKS
WINCHESTER*    CLOUDY    18   5  57 NW8       30.30F WCI   7
FRONT ROYAL*   CLOUDY    19   5  53 E5        30.29F WCI  13
LURAY*         FAIR      19   5  53 W3        30.28F
NEW MARKET*    MOCLDY    13   4  64 CALM      30.28S
STAUNTON*      CLOUDY    14   4  63 CALM      30.28S
WAYNESBORO*    CLOUDY    16   5  61 N5        30.24S WCI   9

$$

WVZ021-048>050-054>055-180600-
EASTERN WEST VIRGINIA PANHANDLE

CITY           SKY/WX    TMP DP  RH WIND       PRES   REMARKS
MARTINSBURG    FAIR      16   5  62 W6        30.29F WCI   7
PETERSBURG*    FAIR       6   1  81 CALM      30.32F

$$

VAZ036>039-050-180600-
CENTRAL FOOTHILLS

CITY           SKY/WX    TMP DP  RH WIND       PRES   REMARKS
CHARLOTTESVILL FAIR      23   3  42 NW7       30.25F WCI  15
CULPEPER*      FAIR      20   4  48 N7        30.29F WCI  11
ORANGE*        CLOUDY    19   7  58 CALM      30.27S
GORDONSVILLE*  CLOUDY    21   7  54 MISG      30.26F
WARRENTON*     FAIR      18   4  54 NE3       30.28F

$$

VAZ055>057-180600-
NORTH AND CENTRAL PIEDMONT

CITY           SKY/WX    TMP DP  RH WIND       PRES   REMARKS
FREDERICKSBRG* FAIR      20   8  58 N10       30.29F WCI   9
STAFFORD*      FAIR      19   7  58 N6        30.34S WCI  11

$$

NCZ024-NYZ072-PAZ021-071-VAZ022-071-180600-
OTHER REGIONAL OBSERVATIONS

CITY           SKY/WX    TMP DP  RH WIND       PRES   REMARKS
NEW YORK CITY  FAIR      22   9  57 NW9       30.19S WCI  12
PHILADELPHIA   FAIR      22   8  55 NW9       30.25S WCI  12
PITTSBURGH     FAIR       8   3  80 SW9       30.29F WCI  -5
ROANOKE        FAIR      15   1  53 NW10      30.32F WCI   2
RICHMOND       CLOUDY    23  10  57 N13       30.25F WCI  11
RALEIGH        FLURRIES  23  19  85 VRB3      30.25F

$$

ANZ530>537-180600-
MARINE OBSERVATIONS

STATION/POSITION TIME  TEMP    WIND        PRES
                       AIR SEA DIR/SP/G
                 (UTC) (F)     (DEG/KT/KT) (MB)
THOMAS PT LIGHT  0500   21 31  320/ 14/ 15   N/A
BALT KEY BRIDGE  0442   21     300/ 14/ 16 1025.4F
COVE POINT       0442   23     350/ 25/ 29 1025.1F
LEWISETTA        0442   25 32  360/ 12/ 17 1024.5F
SOLOMONS ISLAND  0442   24 34  330/ 14/ 20 1024.1F
PINEY POINT      0448          360/ 18/ 19   N/A

$$





USA.gov is the U.S. government's official web portal to all federal, state and local government web resources and services.